Regional Weather Roundup
Issued by NWS Jackson, KY

Home | Current Version | Previous Version | Graphics & Text | Print | Product List | Glossary On
Versions: 1 2 3 4 5 6 7 8 9 10 11 12 13 14 15 16 17 18 19 20 21 22 23 24 25 26 27 28 29 30 31 32 33 34 35 36 37 38 39 40 41 42 43 44 45 46 47 48 49 50
000
ASUS43 KJKL 132311
RWRJKL

EAST KENTUCKY HOURLY WEATHER ROUNDUP
NATIONAL WEATHER SERVICE JACKSON KY
700 PM EDT SUN JUL 13 2014

NOTE: "FAIR" INDICATES FEW OR NO CLOUDS BELOW 12,000 FEET WITH
NO SIGNIFICANT WEATHER AND/OR OBSTRUCTIONS TO VISIBILITY.

* THESE REPORTS ARE NOT UNDER NWS QUALITY CONTROL AND MAY NOT
  REPORT WEATHER SUCH AS PRECIPITATION AND FOG.

KYZ079-080-083-085-087-088-110-112-115-119-120-140000
...EASTERN KENTUCKY...

CITY           SKY/WX    TMP DP  RH WIND       PRES   REMARKS
JACKSON        MOSUNNY   85  67  54 VRB5      29.99F
LONDON         MOSUNNY   88  69  53 S9        30.00F HX  92
SOMERSET*      PTSUNNY   90  61  37 SW13      29.99S
MONTICELLO*    SUNNY     90  70  51 SW9       30.00F HX  95
WILLIAMSBURG*  SUNNY     86  72  62 SW7       30.01F HX  92
MIDDLESBORO*   MOSUNNY   86  69  56 S7        30.03S HX  90
HARLAN APT*    MOCLDY    82  64  54 MISG      30.05S
HAZARD APT*    CLEAR     88  66  48 S8        30.00F HX  90
BLACK MTN*       N/A     70  66  88 SW3         N/A
PIKEVILLE APT* SUNNY     84  68  58 S7        30.01F
BIG SANDY*     CLEAR     88  70  55 S9        29.98F HX  93
MOREHEAD APT*    N/A     88  66  48 SW12G24   29.96F HX  90
$$

KYZ035-036-041-042-044-050-067-078-099-140000
...CENTRAL KENTUCKY...

CITY           SKY/WX    TMP DP  RH WIND       PRES   REMARKS
MT STERLING*   MOSUNNY   86  68  54 W12       29.96F
FLEMING/MASON* PTSUNNY   83  71  66 W6        29.94R
DANVILLE*      MOSUNNY   88  68  51 SW7       29.98S HX  91
RICHMOND*      MOSUNNY   90  64  43 SW8       29.96F HX  91
LEXINGTON      MOSUNNY   90  69  50 SW12      29.95F HX  94
FRANKFORT      PTSUNNY   84  69  60 N6        29.93R
$$

KYZ091>093-OHZ055-061-077-WVZ005-015-034-035-042-140000
...SOUTHERN OHIO/WEST VIRGINIA...

CITY           SKY/WX    TMP DP  RH WIND       PRES   REMARKS
COVINGTON      CLOUDY    79  70  74 W10       29.93S
COLUMBUS       PTSUNNY   78  67  68 S5        29.91S
DAYTON         PTSUNNY   82  71  69 W9        29.93R
WILMINGTON     LGT RAIN  73  68  84 W14G22    29.92F
HUNTINGTON     MOSUNNY   89  64  43 SW9G21    29.92S HX  90
CHARLESTON     PTSUNNY   90  66  45 S8        29.93F HX  92
PINEVILLE*     MOSUNNY   85  75  71 MISG      30.08F HX  93
BECKLEY        SUNNY     82  64  54 SW13      30.08F
BLUEFIELD      PTSUNNY   83  64  52 W9        30.13S
$$

VAZ002-007-008-TNZ017-027-036-066-071-140000
...SOUTHWEST VIRGINIA/EAST TENNESSEE...

CITY           SKY/WX    TMP DP  RH WIND       PRES   REMARKS
WISE*          PTSUNNY   79  64  61 SW9       30.13S
JONESVILLE*    PTCLDY    84  68  58 SW8       30.07S
ABINGDON*      PTSUNNY   83  71  65 CALM      30.09S
BRISTOL        PTSUNNY   86  68  54 N7        30.06R
KNOXVILLE      CLOUDY    86  70  58 W8        30.03S HX  90
OAK RIDGE      MOSUNNY   85  73  67 SW7       30.04S HX  91
CROSSVILLE     MOSUNNY   81  71  71 VRB5      30.08F
NASHVILLE      PTSUNNY   92  70  48 SW7       29.98F HX  97
$$

...KEY TO REMARKS...
VSB - VISIBILITY IN MILES
WCI - WIND CHILL INDEX
HX  - HEAT INDEX

$$


USA.gov is the U.S. government's official web portal to all federal, state and local government web resources and services.